FIN7X EFOU-EFHK

Flight info

Callsign FIN7X
Flight time 0h 43m
Altitude 33000
Route MIKNU Y86 LUSEP
Aircraft A20N/M-SDE2E3FGHIRWXY/LB1

Departure

Time 2026-04-30 20:45
Airport Oulu Airport (EFOU)

Arrival

Time 2026-04-30 21:28
Airport Helsinki Vantaa Airport (EFHK)
Time Latitude Longitude Altitude Speed Heading
2026-04-30 20:26 64.92785 25.37464 46 ft 0 kts 32°
2026-04-30 20:38 64.92784 25.37462 49 ft 3 kts 32°
2026-04-30 20:39 64.92752 25.37414 45 ft 3 kts 32°
2026-04-30 20:39 64.92741 25.37398 45 ft 0 kts 24°
2026-04-30 20:40 64.92736 25.37392 48 ft 3 kts 38°
2026-04-30 20:40 64.92726 25.37355 44 ft 3 kts 104°
2026-04-30 20:41 64.92726 25.37346 44 ft 0 kts 118°
2026-04-30 20:42 64.92726 25.37348 44 ft 1 kts 118°
2026-04-30 20:42 64.92716 25.37394 47 ft 5 kts 118°
2026-04-30 20:42 64.92640 25.37679 47 ft 16 kts 122°
2026-04-30 20:43 64.92573 25.37917 47 ft 16 kts 141°
2026-04-30 20:43 64.92510 25.37918 47 ft 1 kts 214°
2026-04-30 20:43 64.92507 25.37909 47 ft 0 kts 221°
2026-04-30 20:44 64.92477 25.37777 46 ft 14 kts 263°
2026-04-30 20:44 64.92479 25.37613 45 ft 16 kts 278°
2026-04-30 20:44 64.92880 25.35991 48 ft 111 kts 300°
2026-04-30 20:45 64.93824 25.32425 872 ft 124 kts 302°
2026-04-30 20:45 64.94314 25.30696 1356 ft 131 kts 299°
2026-04-30 20:45 64.94775 25.28790 1840 ft 138 kts 299°
2026-04-30 20:46 64.95731 25.22176 2774 ft 191 kts 260°
2026-04-30 20:46 64.95161 25.19328 3444 ft 201 kts 232°
2026-04-30 20:47 64.92619 25.15388 4730 ft 242 kts 210°
2026-04-30 20:47 64.91064 25.13454 5338 ft 264 kts 210°
2026-04-30 20:48 64.87303 25.12865 7037 ft 291 kts 165°
2026-04-30 20:48 64.85342 25.14303 7933 ft 299 kts 163°
2026-04-30 20:48 64.83343 25.15818 8851 ft 305 kts 163°
2026-04-30 20:48 64.81294 25.17352 9790 ft 312 kts 163°
2026-04-30 20:49 64.79193 25.18899 10554 ft 324 kts 163°
2026-04-30 20:49 64.76955 25.20526 10905 ft 349 kts 163°
2026-04-30 20:49 64.74562 25.22253 11294 ft 369 kts 163°
2026-04-30 20:50 64.69559 25.25854 12877 ft 382 kts 163°
2026-04-30 20:50 64.67026 25.27673 13666 ft 389 kts 163°
2026-04-30 20:50 64.64422 25.29539 14413 ft 394 kts 163°
2026-04-30 20:50 64.61785 25.31425 15148 ft 399 kts 164°
2026-04-30 20:51 64.59111 25.33333 15877 ft 404 kts 164°
2026-04-30 20:51 64.53661 25.37210 17288 ft 415 kts 164°
2026-04-30 20:51 64.50880 25.39183 18001 ft 420 kts 164°
2026-04-30 20:52 64.48069 25.41172 18663 ft 425 kts 165°
2026-04-30 20:52 64.45200 25.42885 19289 ft 427 kts 172°
2026-04-30 20:52 64.39260 25.43545 20530 ft 430 kts 185°
2026-04-30 20:53 64.36255 25.43339 21113 ft 434 kts 185°
2026-04-30 20:53 64.33249 25.43145 21705 ft 438 kts 185°
2026-04-30 20:53 64.30143 25.42960 22325 ft 442 kts 185°
2026-04-30 20:54 64.23946 25.42609 23438 ft 453 kts 184°
2026-04-30 20:54 64.20777 25.42439 23991 ft 457 kts 184°
2026-04-30 20:54 64.17583 25.42268 24494 ft 460 kts 184°
2026-04-30 20:55 64.11121 25.41923 25468 ft 467 kts 185°
2026-04-30 20:55 64.07864 25.41749 25951 ft 470 kts 185°
2026-04-30 20:55 64.04584 25.41573 26409 ft 473 kts 185°
2026-04-30 20:56 63.97991 25.41220 27287 ft 479 kts 184°
2026-04-30 20:56 63.94646 25.41042 27710 ft 482 kts 184°
2026-04-30 20:56 63.87895 25.40685 28540 ft 488 kts 184°
2026-04-30 20:57 63.84487 25.40505 28929 ft 491 kts 184°
2026-04-30 20:57 63.81063 25.40327 29313 ft 494 kts 184°
2026-04-30 20:57 63.77611 25.40153 29690 ft 497 kts 184°
2026-04-30 20:58 63.70659 25.39806 30398 ft 502 kts 184°
2026-04-30 20:58 63.67157 25.39621 30728 ft 504 kts 184°
2026-04-30 20:58 63.63652 25.39433 31063 ft 506 kts 184°
2026-04-30 20:58 63.60120 25.39242 31396 ft 508 kts 184°
2026-04-30 20:59 63.53038 25.38871 32202 ft 509 kts 184°
2026-04-30 20:59 63.49517 25.38689 32427 ft 512 kts 184°
2026-04-30 21:00 63.42389 25.38325 33021 ft 510 kts 184°
2026-04-30 21:00 63.35302 25.37964 33157 ft 509 kts 184°
2026-04-30 21:01 63.24723 25.37421 33184 ft 508 kts 184°
2026-04-30 21:02 63.14120 25.36881 33184 ft 508 kts 184°
2026-04-30 21:02 63.07051 25.36524 33184 ft 508 kts 184°
2026-04-30 21:03 62.99978 25.36168 33177 ft 507 kts 184°
2026-04-30 21:03 62.92907 25.35812 33180 ft 508 kts 184°
2026-04-30 21:04 62.85883 25.35462 33181 ft 508 kts 184°
2026-04-30 21:04 62.75255 25.34931 33170 ft 510 kts 183°
2026-04-30 21:05 62.68156 25.34577 33158 ft 510 kts 183°
2026-04-30 21:05 62.61041 25.34222 33177 ft 511 kts 183°
2026-04-30 21:06 62.53970 25.33874 33168 ft 512 kts 183°
2026-04-30 21:06 62.46839 25.33526 33169 ft 512 kts 183°
2026-04-30 21:07 62.39685 25.33182 33175 ft 513 kts 183°
2026-04-30 21:07 62.32531 25.32839 33179 ft 513 kts 183°
2026-04-30 21:08 62.25428 25.32500 33190 ft 513 kts 183°
2026-04-30 21:08 62.18286 25.32160 33191 ft 513 kts 183°
2026-04-30 21:09 62.11132 25.31822 33201 ft 513 kts 183°
2026-04-30 21:09 62.03976 25.31481 32895 ft 516 kts 182°
2026-04-30 21:10 62.00384 25.31307 32347 ft 517 kts 182°
2026-04-30 21:10 61.96790 25.31135 31392 ft 516 kts 182°
2026-04-30 21:10 61.93186 25.30966 30357 ft 517 kts 182°
2026-04-30 21:10 61.89593 25.30799 29663 ft 513 kts 182°
2026-04-30 21:11 61.86105 25.30638 29252 ft 503 kts 182°
2026-04-30 21:11 61.82630 25.30479 28658 ft 497 kts 183°
2026-04-30 21:11 61.79184 25.30319 28039 ft 492 kts 183°
2026-04-30 21:11 61.75787 25.30161 27419 ft 488 kts 183°
2026-04-30 21:12 61.72407 25.30004 26808 ft 484 kts 183°
2026-04-30 21:12 61.69043 25.29848 26184 ft 481 kts 182°
2026-04-30 21:12 61.65712 25.29694 25579 ft 477 kts 182°
2026-04-30 21:12 61.62402 25.29541 24955 ft 475 kts 182°
2026-04-30 21:13 61.59129 25.29389 24321 ft 473 kts 182°
2026-04-30 21:13 61.55839 25.29235 23640 ft 472 kts 183°
2026-04-30 21:13 61.52575 25.29081 22997 ft 468 kts 183°
2026-04-30 21:13 61.49336 25.28930 22355 ft 463 kts 183°
2026-04-30 21:14 61.46129 25.28780 21722 ft 459 kts 182°
2026-04-30 21:14 61.42941 25.28631 21095 ft 456 kts 182°
2026-04-30 21:14 61.39775 25.28484 20462 ft 453 kts 182°
2026-04-30 21:14 61.36635 25.28337 19838 ft 450 kts 182°
2026-04-30 21:15 61.33511 25.28191 19190 ft 448 kts 182°
2026-04-30 21:15 61.30396 25.28047 18576 ft 446 kts 182°
2026-04-30 21:15 61.27296 25.27904 17908 ft 443 kts 182°
2026-04-30 21:15 61.24218 25.27784 17154 ft 442 kts 181°
2026-04-30 21:16 61.21138 25.27749 16432 ft 440 kts 180°
2026-04-30 21:16 61.18133 25.27743 15807 ft 436 kts 180°
2026-04-30 21:16 61.15091 25.27737 15006 ft 428 kts 180°
2026-04-30 21:16 61.12165 25.27723 14177 ft 422 kts 180°
2026-04-30 21:17 61.09244 25.27704 13451 ft 417 kts 180°
2026-04-30 21:17 61.06364 25.27683 12908 ft 411 kts 180°
2026-04-30 21:17 61.03521 25.27659 12363 ft 404 kts 180°
2026-04-30 21:17 61.00720 25.27636 11818 ft 400 kts 180°
2026-04-30 21:18 60.97953 25.27613 11277 ft 395 kts 180°
2026-04-30 21:18 60.95223 25.27590 10788 ft 389 kts 180°
2026-04-30 21:18 60.92562 25.27569 10619 ft 374 kts 180°
2026-04-30 21:18 60.90003 25.27548 10473 ft 360 kts 180°
2026-04-30 21:19 60.87576 25.27528 10340 ft 347 kts 181°
2026-04-30 21:19 60.85212 25.27508 10179 ft 332 kts 181°
2026-04-30 21:19 60.82938 25.27489 9709 ft 324 kts 181°
2026-04-30 21:19 60.80693 25.27469 9236 ft 320 kts 181°
2026-04-30 21:20 60.78475 25.27451 8862 ft 316 kts 181°
2026-04-30 21:20 60.76294 25.27433 8353 ft 312 kts 181°
2026-04-30 21:20 60.74127 25.27414 7878 ft 309 kts 181°
2026-04-30 21:20 60.71982 25.27396 7479 ft 307 kts 181°
2026-04-30 21:21 60.69879 25.27377 7092 ft 305 kts 180°
2026-04-30 21:21 60.67760 25.27359 6701 ft 303 kts 180°
2026-04-30 21:21 60.63572 25.27328 5918 ft 295 kts 181°
2026-04-30 21:22 60.61535 25.27314 5398 ft 290 kts 181°
2026-04-30 21:22 60.55607 25.27266 4208 ft 280 kts 181°
2026-04-30 21:23 60.53661 25.27248 3841 ft 278 kts 181°
2026-04-30 21:23 60.51728 25.27231 3473 ft 277 kts 180°
2026-04-30 21:23 60.47937 25.27120 3080 ft 270 kts 188°
2026-04-30 21:24 60.46242 25.25932 3006 ft 250 kts 213°
2026-04-30 21:24 60.44903 25.23882 2996 ft 233 kts 226°
2026-04-30 21:24 60.43799 25.21640 2992 ft 216 kts 230°
2026-04-30 21:24 60.42831 25.19475 2997 ft 197 kts 231°
2026-04-30 21:25 60.41036 25.15499 2509 ft 186 kts 231°
2026-04-30 21:25 60.40179 25.13605 2252 ft 179 kts 231°
2026-04-30 21:25 60.39358 25.11789 2016 ft 175 kts 231°
2026-04-30 21:26 60.37813 25.08378 1554 ft 150 kts 233°
2026-04-30 21:26 60.37137 25.06887 1360 ft 138 kts 233°
2026-04-30 21:27 60.35830 25.03995 987 ft 138 kts 234°
2026-04-30 21:27 60.35205 25.02622 799 ft 129 kts 231°
2026-04-30 21:27 60.34607 25.01300 643 ft 128 kts 231°
2026-04-30 21:28 60.33408 24.98655 294 ft 126 kts 230°
2026-04-30 21:28 60.32826 24.97369 171 ft 121 kts 231°
2026-04-30 21:28 60.32141 24.95859 164 ft 15 kts 226°
2026-04-30 21:29 60.32072 24.95817 163 ft 7 kts 182°
2026-04-30 21:29 60.32018 24.95846 162 ft 11 kts 146°
2026-04-30 21:30 60.31964 24.95982 161 ft 8 kts 102°
2026-04-30 21:31 60.32123 24.96377 161 ft 16 kts 45°
2026-04-30 21:31 60.32235 24.96726 161 ft 11 kts 130°
2026-04-30 21:32 60.32102 24.96902 161 ft 17 kts 149°
2026-04-30 21:32 60.31992 24.97031 161 ft 20 kts 153°
2026-04-30 21:32 60.31881 24.97137 161 ft 18 kts 153°
2026-04-30 21:32 60.31787 24.97232 161 ft 9 kts 160°
2026-04-30 21:33 60.31758 24.97164 161 ft 6 kts 242°
2026-04-30 21:33 60.31747 24.97119 161 ft 0 kts 242°